Weather History for CYXH - April, 2013

Change the Weather History Date:

Wednesday, April 10, 2013

  Actual Average Record
Temperature  
Mean Temperature 22 °F -  
Max Temperature 55 °F 59 °F 69 °F (2003)
Min Temperature -10 °F 35 °F -29 °F (2015)
Degree Days  
Heating Degree Days 42    
Moisture  
Dew Point 21 °F    
Average Humidity 57    
Maximum Humidity 93    
Minimum Humidity 26    
Precipitation  
Precipitation 0.31 in 0.04 in - ()
Sea Level Pressure  
Sea Level Pressure 29.89 in    
Wind  
Wind Speed 15 mph ()    
Max Wind Speed 30 mph    
Max Gust Speed 41 mph    
Visibility 9.2 miles    
Events Rain    
Averages and records for this station are not official NWS values.
T = Trace of Precipitation, MM = Missing Value Source: Averaged Metar Reports

Daily Weather History Graph

Daily Weather History Graph

Search for Another Location

Airport or City:

Trip Planner

Search our weather history database for the weather conditions in past years. The results will help you decide how hot, cold, wet, or windy it might be!

Date:

Astronomy

Apr. 10, 2013 Rise Set
Actual Time 6:39 AM MDT 8:09 PM MDT
Civil Twilight 6:05 AM MDT 8:43 PM MDT
Nautical Twilight 5:25 AM MDT 9:24 PM MDT
Astronomical Twilight 4:40 AM MDT 10:09 PM MDT
Moon 6:34 AM MDT (4/10) 8:55 PM MDT (4/10)
Length of Visible Light 14h 37m
Length of Day
13h 29m
New Moon, 0% of the Moon is Illuminated
Apr 10
New Moon
Apr 18
First Quarter
Apr 25
Full
May 2
Last Quarter
May 9
New

Hourly Weather History & Observations

Time (MDT) Temp. Windchill Dew Point Humidity Pressure Visibility Wind Dir Wind Speed Gust Speed Precip Events Conditions
12:00 AM -8 °F - -11 °F 77% 30.14 in - South 15.0 mph - -  
12:00 AM 26.6 °F 19.1 °F 10.4 °F 51% 30.29 in 9.0 mi SSE 6.9 mph - N/A   Clear
1:00 AM 28.4 °F 20.4 °F 10.4 °F 47% 30.25 in 9.0 mi South 8.1 mph - N/A   Clear
2:00 AM 30.2 °F 21.3 °F 12.2 °F 47% 30.22 in 9.0 mi South 10.4 mph 17.3 mph N/A   Clear
3:00 AM 30.2 °F 22.6 °F 12.2 °F 47% 30.19 in 9.0 mi South 8.1 mph - N/A   Clear
4:00 AM 30.2 °F 19.8 °F 14.0 °F 51% 30.15 in 9.0 mi South 13.8 mph 20.7 mph N/A   Clear
5:00 AM 32.0 °F 21.2 °F 14.0 °F 48% 30.12 in 9.0 mi South 16.1 mph 21.9 mph N/A   Partly Cloudy
6:00 AM -4 °F - -7 °F 80% 30.05 in - South 13.8 mph - -  
6:00 AM 30.2 °F 20.8 °F 12.2 °F 47% 30.09 in 9.0 mi South 11.5 mph 19.6 mph N/A   Partly Cloudy
6:41 AM 32.0 °F 19.2 °F 12.2 °F 44% 30.05 in 9.0 mi South 23.0 mph 28.8 mph N/A   Clear
7:00 AM 32.0 °F 18.4 °F 12.2 °F 44% 30.05 in 30.0 mi South 26.5 mph 34.5 mph N/A   Mostly Cloudy
8:00 AM 33.8 °F 21.0 °F 10.4 °F 38% 30.03 in 30.0 mi South 25.3 mph 34.5 mph N/A   Overcast
9:00 AM 35.6 °F 24.8 °F 10.4 °F 35% 30.03 in 30.0 mi South 19.6 mph 31.1 mph N/A   Overcast
10:00 AM 37.4 °F 26.9 °F 12.2 °F 36% 30.00 in 30.0 mi South 20.7 mph 31.1 mph N/A   Overcast
11:00 AM 39.2 °F 27.8 °F 12.2 °F 33% 29.96 in 30.0 mi South 27.6 mph 33.4 mph N/A   Mostly Cloudy
12:00 PM 5 °F - 2 °F 83% 29.95 in - South 25.3 mph - -  
12:00 PM 44.6 °F 34.7 °F 15.8 °F 31% 29.89 in 30.0 mi South 29.9 mph 39.1 mph N/A   Mostly Cloudy
1:00 PM 48.2 °F - 17.6 °F 30% 29.83 in 30.0 mi SSE 28.8 mph 41.4 mph N/A   Mostly Cloudy
2:00 PM 53.6 °F - 19.4 °F 26% 29.78 in 30.0 mi South 28.8 mph 41.4 mph N/A   Mostly Cloudy
3:00 PM 53.6 °F - 21.2 °F 28% 29.75 in 30.0 mi South 26.5 mph 36.8 mph N/A   Mostly Cloudy
4:00 PM 55.4 °F - 24.8 °F 31% 29.71 in 30.0 mi South 23.0 mph 32.2 mph N/A   Overcast
5:00 PM 53.6 °F - 24.8 °F 33% 29.67 in 30.0 mi South 23.0 mph 32.2 mph N/A   Overcast
6:00 PM 7 °F - 5 °F 86% 29.86 in - South 25.3 mph - -  
6:00 PM 55.4 °F - 28.4 °F 36% 29.63 in 30.0 mi South 24.2 mph 31.1 mph N/A   Overcast
6:10 PM 55.4 °F - 32.0 °F 41% 29.63 in 30.0 mi South 26.5 mph 33.4 mph N/A Rain Light Rain Showers
7:00 PM 50.0 °F - 42.8 °F 76% 29.66 in 10.0 mi SSW 21.9 mph 28.8 mph N/A Rain Light Rain Showers
8:00 PM 46.4 °F 40.1 °F 42.8 °F 87% 29.65 in 10.0 mi South 15.0 mph - N/A Rain Light Rain Showers
9:00 PM 46.4 °F 41.9 °F 42.8 °F 87% 29.65 in 10.0 mi South 9.2 mph - N/A Rain Light Rain Showers
10:00 PM 44.6 °F 40.2 °F 42.8 °F 93% 29.65 in 9.0 mi SSW 8.1 mph - N/A Rain Light Rain
10:08 PM 44.6 °F 40.2 °F 42.8 °F 93% 29.65 in 9.0 mi South 8.1 mph - N/A   Overcast
10:11 PM 44.6 °F 39.7 °F 42.8 °F 93% 29.65 in 9.0 mi South 9.2 mph - N/A Rain Light Rain
11:00 PM 44.6 °F 38.1 °F 41.0 °F 87% 29.65 in 9.0 mi SSW 13.8 mph - N/A Rain Light Rain
11:31 PM 44.6 °F 41.4 °F 41.0 °F 87% 29.66 in 9.0 mi West 5.8 mph - N/A   Overcast
11:50 PM 42.8 °F 39.3 °F 41.0 °F 93% 29.65 in 9.0 mi WSW 5.8 mph - N/A Rain Light Rain